LA9NKA Weather Reports


Display with metric or nautical units.
time (UTC)temp
F
wind
direction
speed
MPH
gust
MPH
rain 1hr
in
rain 24hr
in
rain mn
in
humidity
%
barometer
mb
20260507122044 0 282 4.0 8.0 0.00 0.01 0.01 86 1016.8
20260507121043 0 268 2.0 4.0 0.00 0.01 0.01 86 1016.9
20260507120042 0 270 3.0 5.0 0.00 0.01 0.01 86 1016.9
20260507115041 0 280 2.0 5.0 0.00 0.01 0.01 86 1016.9
20260507114040 0 215 2.0 5.0 0.00 0.01 0.01 86 1017.0
20260507113039 0 227 2.0 4.0 0.00 0.01 0.01 86 1017.1
20260507112039 0 168 2.0 4.0 0.00 0.01 0.01 86 1017.2
20260507111038 0 206 3.0 5.0 0.00 0.01 0.01 86 1017.1
20260507110037 0 222 2.0 4.0 0.00 0.01 0.01 86 1017.2
20260507105036 0 199 3.0 5.0 0.00 0.01 0.01 86 1017.1
20260507104033 0 239 2.0 5.0 0.00 0.01 0.01 86 1017.0
20260507103033 0 225 2.0 5.0 0.00 0.01 0.01 86 1017.0
20260507102032 0 213 3.0 7.0 0.00 0.01 0.01 86 1017.0
20260507101029 0 229 3.0 5.0 0.00 0.01 0.01 86 1017.0
20260507100028 0 187 3.0 5.0 0.00 0.01 0.01 86 1016.9
20260507095057 0 222 0.0 1.0 0.00 0.01 0.01 86 1016.9
20260507094026 0 112 2.0 4.0 0.00 0.01 0.01 86 1016.8
20260507093025 0 128 2.0 4.0 0.00 0.01 0.01 86 1016.8
20260507092025 0 125 2.0 4.0 0.00 0.01 0.01 86 1016.8
20260507091024 0 100 2.0 4.0 0.00 0.01 0.01 86 1016.8
20260507090023 0 102 2.0 4.0 0.00 0.01 0.01 86 1016.8
20260507085052 0 81 2.0 4.0 0.00 0.01 0.01 86 1016.8
20260507084021 0 88 2.0 4.0 0.00 0.01 0.01 86 1016.8
20260507083118 0 96 1.0 5.0 0.00 0.02 0.01 86 1016.7
20260507082047 0 127 3.0 7.0 0.00 0.03 0.01 86 1016.6
20260507081046 0 119 2.0 5.0 0.00 0.04 0.01 86 1016.5
20260507080045 0 118 2.0 5.0 0.00 0.06 0.01 86 1016.5
20260507075044 0 99 2.0 4.0 0.00 0.09 0.01 86 1016.4
20260507074041 0 104 1.0 3.0 0.00 0.10 0.01 86 1016.4
20260507073040 0 95 2.0 4.0 0.00 0.11 0.01 86 1016.4
20260507072039 0 93 2.0 4.0 0.00 0.12 0.01 86 1016.4
20260507071038 0 98 1.0 4.0 0.00 0.12 0.01 86 1016.3
20260507070037 0 103 2.0 5.0 0.00 0.12 0.01 86 1016.3
20260507065037 0 115 2.0 4.0 0.00 0.12 0.01 86 1016.3
20260507064035 0 86 2.0 3.0 0.00 0.12 0.01 86 1016.3
20260507063032 0 92 2.0 3.0 0.00 0.12 0.01 86 1016.2
20260507062031 0 105 2.0 4.0 0.00 0.12 0.01 86 1016.2
20260507061030 0 126 2.0 4.0 0.00 0.12 0.01 86 1016.2
20260507060029 0 90 1.0 3.0 0.00 0.12 0.01 86 1016.1
20260507055129 0 92 2.0 3.0 0.00 0.12 0.01 86 1016.1
20260507054027 0 99 1.0 3.0 0.00 0.12 0.01 86 1016.1
20260507053057 0 90 1.0 3.0 0.00 0.12 0.01 86 1016.0
20260507052055 0 111 1.0 3.0 0.00 0.12 0.01 86 1016.0
20260507051125 0 75 1.0 3.0 0.00 0.12 0.01 86 1015.9
20260507050024 0 68 1.0 3.0 0.00 0.12 0.01 86 1015.8
20260507045323 0 68 0.0 1.0 0.00 0.12 0.01 86 1015.8
20260507044053 0 67 0.0 1.0 0.00 0.12 0.01 86 1015.7
20260507043122 0 68 0.0 1.0 0.00 0.12 0.01 86 1015.7
20260507042221 0 68 0.0 1.0 0.00 0.12 0.01 86 1015.7
20260507041020 0 68 1.0 3.0 0.00 0.12 0.01 86 1015.6
20260507040019 0 68 1.0 1.0 0.00 0.12 0.01 86 1015.6
20260507035048 0 68 1.0 1.0 0.00 0.12 0.01 86 1015.5
20260507034048 0 68 0.0 1.0 0.00 0.12 0.01 86 1015.6
20260507033047 0 68 0.0 1.0 0.00 0.12 0.01 86 1015.5
20260507032116 0 45 0.0 1.0 0.00 0.13 0.01 86 1015.5
20260507031046 0 0.0 0.0 0.00 0.13 0.01 86 1015.5
20260507030214 0 0.0 0.0 0.00 0.13 0.01 86 1015.4
20260507025536 0 45 0.0 1.0 0.00 0.13 0.01 86 1015.5
20260507024535 0 71 1.0 3.0 0.00 0.13 0.01 86 1015.4
20260507023604 0 0.0 0.0 0.00 0.13 0.01 86 1015.3
20260507023004 0 0.0 0.0 0.00 0.13 0.01 86 1015.3
20260507021829 0 0.0 0.0 0.00 0.13 0.01 86 1015.2
20260507020529 0 113 0.0 1.0 0.00 0.13 0.01 86 1015.1
20260507015627 0 113 0.0 1.0 0.00 0.13 0.01 86 1015.1
20260507014927 0 0.0 0.0 0.00 0.13 0.01 86 1015.1
20260507012557 0 113 0.0 1.0 0.00 0.13 0.01 86 1015.1
20260507011555 0 113 1.0 1.0 0.00 0.13 0.01 86 1015.1
20260507010554 0 128 1.0 3.0 0.00 0.13 0.01 86 1015.1
20260507005553 0 113 0.0 1.0 0.00 0.13 0.01 86 1015.1
20260507004552 0 129 1.0 3.0 0.00 0.13 0.01 86 1015.1
20260507003522 0 135 1.0 3.0 0.00 0.13 0.01 86 1015.0
20260507002521 0 0.0 0.0 0.00 0.13 0.01 86 1015.0
20260507002020 0 158 0.0 1.0 0.00 0.13 0.01 86 1015.1
20260507000650 0 204 1.0 3.0 0.00 0.13 0.01 86 1015.1
20260506235705 0 0.0 0.0 0.00 0.13 0.01 86 1015.2
20260506234604 0 0.0 0.0 0.00 0.13 0.01 86 1015.2
20260506233533 0 248 0.0 1.0 0.00 0.13 0.01 86 1015.3
20260506232533 0 237 1.0 4.0 0.01 0.13 0.01 86 1015.2
20260506231559 0 238 1.0 3.0 0.01 0.13 0.01 86 1015.2
20260506230528 0 225 0.0 1.0 0.01 0.13 0.01 86 1015.2
20260506225657 0 239 2.0 4.0 0.01 0.13 0.01 86 1015.1
20260506224556 0 240 1.0 4.0 0.01 0.13 0.01 86 1015.0
20260506223656 0 198 1.0 4.0 0.01 0.13 0.01 86 1015.0
20260506222623 0 275 2.0 7.0 0.00 0.12 0.00 86 1015.1
20260506221521 0 0.0 0.0 0.00 0.12 0.00 86 1015.0
20260506220648 0 293 0.0 1.0 0.00 0.12 0.00 86 1015.0
20260506215517 0 0.0 0.0 0.00 0.12 0.12 86 1014.8
20260506214516 0 0.0 0.0 0.00 0.12 0.12 86 1014.8
20260506213616 0 0.0 0.0 0.00 0.12 0.12 86 1014.8
20260506212045 0 0.0 0.0 0.00 0.12 0.12 86 1014.7
20260506211114 0 0.0 0.0 0.00 0.12 0.12 86 1014.8
20260506210343 0 0.0 0.0 0.00 0.12 0.12 86 1014.7
20260506205612 0 293 0.0 1.0 0.00 0.12 0.12 86 1014.8
20260506204641 0 0.0 0.0 0.00 0.12 0.12 86 1014.7
20260506203537 0 293 0.0 1.0 0.00 0.12 0.12 86 1014.7
20260506202607 0 0.0 0.0 0.00 0.12 0.12 86 1014.7
20260506202006 0 248 0.0 1.0 0.00 0.12 0.12 86 1014.8
20260506200535 0 260 1.0 3.0 0.00 0.12 0.12 86 1014.8
20260506195534 0 270 0.0 1.0 0.00 0.12 0.12 86 1014.8
20260506194533 0 270 0.0 1.0 0.00 0.12 0.12 86 1014.7
20260506193733 0 255 1.0 3.0 0.00 0.12 0.12 86 1014.7
20260506192801 0 0.0 0.0 0.00 0.12 0.12 86 1014.6
20260506191558 0 293 0.0 1.0 0.00 0.12 0.12 86 1014.6
20260506190657 0 293 0.0 1.0 0.00 0.12 0.12 86 1014.6
20260506185653 0 293 0.0 1.0 0.00 0.12 0.12 86 1014.5
20260506184552 0 308 1.0 3.0 0.00 0.12 0.12 86 1014.4
20260506183550 0 274 2.0 4.0 0.00 0.12 0.12 86 1014.3
20260506182519 0 279 2.0 5.0 0.00 0.12 0.12 86 1014.3
20260506181548 0 297 1.0 4.0 0.00 0.12 0.12 86 1014.3
20260506180647 0 281 2.0 7.0 0.00 0.12 0.12 86 1014.3
20260506175644 0 351 1.0 3.0 0.00 0.12 0.12 86 1014.3
20260506174543 0 0 1.0 3.0 0.00 0.12 0.12 86 1014.3
20260506173539 0 349 1.0 3.0 0.00 0.12 0.12 86 1014.2
20260506172609 0 354 1.0 4.0 0.00 0.12 0.12 86 1014.3
20260506171638 0 9 1.0 4.0 0.00 0.12 0.12 86 1014.2
20260506170635 0 339 1.0 4.0 0.00 0.12 0.12 86 1014.3
20260506165534 0 311 2.0 10.0 0.00 0.12 0.12 86 1014.2
20260506164533 0 298 4.0 10.0 0.00 0.12 0.12 86 1014.2
20260506163532 0 283 4.0 8.0 0.00 0.12 0.12 86 1014.1
20260506162532 0 270 7.0 11.0 0.00 0.12 0.12 86 1014.2
20260506161531 0 275 7.0 12.0 0.00 0.12 0.12 86 1014.2
20260506160528 0 278 9.0 15.0 0.00 0.12 0.12 86 1014.2
20260506155627 0 273 8.0 14.0 0.00 0.12 0.12 86 1014.1
20260506154526 0 273 9.0 15.0 0.00 0.12 0.12 86 1014.0
20260506153552 0 282 6.0 11.0 0.00 0.12 0.12 86 1014.0
20260506152549 0 275 8.0 12.0 0.00 0.12 0.12 86 1014.0
20260506151545 0 283 6.0 11.0 0.00 0.12 0.12 86 1014.1
20260506150542 0 273 6.0 11.0 0.00 0.12 0.12 86 1014.1
20260506145541 0 287 6.0 12.0 0.00 0.12 0.12 86 1014.1
20260506144640 0 272 7.0 10.0 0.00 0.12 0.12 86 1014.2
20260506143539 0 279 7.0 12.0 0.00 0.12 0.12 86 1014.2
20260506142538 0 271 6.0 12.0 0.00 0.12 0.12 86 1014.3
20260506141638 0 272 7.0 12.0 0.00 0.12 0.12 86 1014.2
20260506140537 0 281 5.0 12.0 0.00 0.12 0.12 86 1014.1
20260506135536 0 283 5.0 11.0 0.00 0.12 0.12 86 1014.2
20260506134532 0 281 7.0 12.0 0.00 0.12 0.12 86 1014.2
20260506133632 0 295 4.0 10.0 0.00 0.12 0.12 86 1014.2
20260506132531 0 289 6.0 10.0 0.00 0.12 0.12 86 1014.2
20260506131530 0 288 5.0 10.0 0.00 0.13 0.12 86 1014.3
20260506130558 0 288 5.0 11.0 0.00 0.14 0.12 86 1014.2
20260506125524 0 286 7.0 11.0 0.00 0.14 0.12 86 1014.2
20260506124524 0 292 6.0 11.0 0.00 0.14 0.12 86 1014.2
20260506123523 0 273 5.0 11.0 0.00 0.14 0.12 86 1014.1
20260506122552 0 283 3.0 8.0 0.00 0.14 0.12 86 1014.1